Regional Weather Roundup
Issued by NWS Glasgow, MT

Home | Current Version | Previous Version | Text Only | Print | Product List | Glossary On
Versions: 1 2 3 4 5 6 7 8 9 10 11 12 13 14 15 16 17 18 19 20 21 22 23 24 25 26 27 28 29 30 31 32 33 34 35 36 37 38 39 40 41 42 43 44 45 46 47 48 49 50
000
ASUS45 KGGW 021315
RWRGGW
HOURLY WEATHER ROUNDUP FOR NORTHEAST MONTANA
NATIONAL WEATHER SERVICE GLASGOW MONTANA
600 AM MST MON MAR 02 2015

NOTE: "FAIR" INDICATES FEW OR NO CLOUDS BELOW 12,000 FEET WITH NO
SIGNIFICANT WEATHER AND/OR OBSTRUCTIONS TO VISISBILITY.

NORTHEAST MONTANA


CITY           SKY/WX    TMP DP  RH WIND       PRES   REMARKS
GLASGOW        PTCLDY    16   8  71 SE15      29.84F
PLENTYWOOD       N/A     12   9  87 S9G18       N/A
WOLF POINT     MOCLDY    18   8  65 CALM      29.92F
JORDAN           N/A     15   8  73 E6        29.84F
WINNETT          N/A     23  14  68 S5          N/A
SIDNEY         PTCLDY    12   3  67 S5        30.00F
GLENDIVE       PTCLDY    10   7  85 S8        29.94F
MALTA            N/A     19  13  77 S3          N/A

FORT PECK REPORTS


CITY           SKY/WX    TMP DP  RH WIND       PRES   REMARKS
FORT PECK        N/A     19  12  74 SE20        N/A
THE PINES        N/A     18  11  74 S9G17       N/A

SOUTHEAST MONTANA


CITY           SKY/WX    TMP DP  RH WIND       PRES   REMARKS
BILLINGS       CLEAR     21   9  59 SW12      29.85F
MILES CITY     CLEAR     13   6  74 S15       29.92F WCI  -3
BAKER          CLEAR     12   5  73 SE17      29.95F WCI  -5
LIVINGSTON     CLEAR     28   5  37 W17G24    29.82F

CENTRAL MONTANA


CITY           SKY/WX    TMP DP  RH WIND       PRES   REMARKS
HAVRE          CLEAR     10   7  87 NW3       29.80S
LEWISTOWN      CLEAR     24   8  50 N5        29.78S
GREAT FALLS    CLOUDY    27  10  49 SW10      29.79R
CUT BANK       CLEAR     23  12  62 NW15      29.81R
HELENA         MOCLDY    17  10  74 CALM      29.87F
BUTTE          PTCLDY     9   3  77 S3        29.84F
BOZEMAN        CLEAR     11   3  70 CALM      29.87F

WESTERN MONTANA


CITY           SKY/WX    TMP DP  RH WIND       PRES   REMARKS
MISSOULA       CLEAR     17  11  77 CALM      29.92S
KALISPELL      NOT AVBL

NORTH DAKOTA


CITY           SKY/WX    TMP DP  RH WIND       PRES   REMARKS
WILLISTON      PTCLDY    13   5  70 S3        30.01F
DICKINSON      PTCLDY    12   6  77 S15       30.01F WCI  -4
MINOT          PTCLDY     6   0  76 SE8       30.11F
BISMARCK       PTCLDY     9   6  88 S12       30.21F WCI  -6

SOUTHERN SASKATCHEWAN


CITY           SKY/WX    TMP DP  RH WIND       PRES   REMARKS
REGINA         MOCLDY     3   0  85 SE22      29.86F WCI -19
MOOSE JAW      CLOUDY    19  10  68 SW18      29.80F
ESTEVAN        MOCLDY     5   1  85 S12       30.00F WCI -11
SWIFT CURRENT  CLEAR     14   9  79 S18       29.69F WCI  -3



USA.gov is the U.S. government's official web portal to all federal, state and local government web resources and services.